Location: Brompton
(51.4000°N, 0.5333°E)
Time: 18:24:38
(UTC+00:00)

Cosmos 1536 - Pass Details

Date: 28 September 2021
Orbit: 539 x 557 km, 82.5° (Epoch: 28 October)

Event Time Altitude Azimuth Distance (km) Brightness Sun altitude
Rises 03:44:05 0° 349° (N) 2,714 6.5 -20.5°
Reaches altitude 10° 03:46:15 10° 349° (N) 1,815 5.6 -20.2°
Maximum altitude 03:50:15 88° 257° (WSW) 548 2.7 -19.6°
Drops below altitude 10° 03:54:12 10° 172° (S) 1,800 5.3 -19.1°
Sets 03:56:20 0° 172° (S) 2,688 6.2 -18.8°
